Погода Тангуй

Погода Тангуй : погода сейчас, прогноз погоды и архив. Всё, что Вы хотите узнать о погоде Тангуй!

Хотите узнать прогноз погоды Тангуй? Тогда Вам сюда: Погода Тангуй

Поиск расширенной информации на нашем сайте:

Другие новости

Новости СМИ2

Главная страница сайта

Новости сайта

03.07.2017

Напоминаем, что на нашем специализированном сайте Метеоцентр.Азия вы можете получить высокодетализированные автоматические прогнозы погоды по пунктам России, СНГ и мира в авиационном формате (включающие направление и скорость ветра, видимость, явления погоды, количество и форму облачности, нижнюю и верхнюю границу облачности).

Рекомендуем: Кровотечение после пиявок все о пиявках как долго может продолжаться Кровотечение.

Погода Тангуй - сегодня

Время (UTC), дата Ветер
(°,м/с) 
Видим.   Явления Облачность Т
(°С)
Тd
(°С)
f(%) Тe
(°С)
Pmin
(гПа)
dP
(гПа)
Po
(мм)
O2
(г/м3)
Тmin Tmax R s Состояние
почвы
21 20.02.18 260 (З) н/о  слаб. снег{ливн. осадки}  10/0 средняя, верхняя 
[Ac trans|Cs]
-12.3 -14.1 86 -12  1026.7  -0.5  729  309           
00 21.02.18 270 (З) н/о  слаб. снег{ливн. осадки}  10/0 средняя, верхняя 
[Ac trans|Cs]
-13.1 -14.7 88 -13  1026.4  -0.5  728  310  -13.2    0.5  49  равномерный
сухой снег
100% 
06 21.02.18 260 (З) 20000 м  слаб. снег  10/0 средняя, верхняя 
[Ac trans|Cs]
-9.8 -12.4 81 -10  1024.2  -1.2  727  305           
09 21.02.18 240 (ЮЗ) 20000 м  слаб. снег  10/0 средняя, верхняя 
[Ac trans|Cs]
-9.7 -12.1 83 -10  1023.6  -0.5  727  305           
12 21.02.18 250 (З) н/о  в посл. час снег{ливн. осадки}  3/0 верхняя 
[Ci fib]
-14.2 -15.5 90 -14  1024.4  -0.2  727  310    -9.6  0.9     
15 21.02.18 тихо ()   н/о  слаб. снег  10/0 средняя, верхняя 
[Ac trans|Cs]
-16 -17.8 86 -16  1024.5  -0.3  727  312           
18 21.02.18 тихо ()   н/о  слаб. снег  10/0 средняя, верхняя 
[Ac trans|Cs]
-17 -18.9 85 -17  1024  -0.7  726  313           
21 21.02.18 тихо ()   н/о  слаб. снег  10/0 средняя, верхняя 
[Ac trans|Cs]
-18.7 -20.7 84 -19  1024.1  -0.3  726  315           
00 22.02.18 190 (Ю) н/о  слаб. ливневой снег  10/3 600 м кучево-дожд., средняя, верхняя 
[Cb cap|Ac trans|Ci fib]
-22.7 -25.1 81 -23  1025.2  0.2  726  321  -23    0.3  48  равномерный
сухой снег
100% 
06 22.02.18 220 (ЮЗ) 20000 м  {ливн. осадки}  3/1 600 м кучево-дожд., верхняя 
[Cb cap|Ci fib]
-12.4 -17.2 67 -12  1024.3  0.3  727  308           
09 22.02.18 тихо ()   20000 м    3/3 600 м кучево-дожд., верхняя 
[Cb cap|Ci fib]
-11.1 -18.3 55 -11  1024.2  0.2  727  307           
12 22.02.18 тихо ()   н/о    1/0 верхняя 
[Ci fib]
-19.2 -20.9 86 -19  1026.6  0.6  728  317    -10.5  0.0     
15 22.02.18 тихо ()   н/о    ясно 
-23.9 -26.5 79 -24  1027.5  -0.2  727  323           
18 22.02.18 040 (СВ) н/о    ясно 
-27.1 -30 76 -28  1027.5  -0.7  727  327           
21 22.02.18 060 (СВ) н/о    ясно 
-28 -31.2 74 -29  1026.9  -0.8  726  328           
00 23.02.18 тихо ()   н/о    10/0 верхняя 
[Ci fib]
-29.3 -32.5 74 -29  1026.8  -0.4  726  330  -29.5      49  равномерный
сухой снег
100% 
03 23.02.18 тихо ()   20000 м  слаб. снег  10/0 верхняя 
[Cs]
-22.7 -25.9 75 -23  1025.1  -0.1  726  321           
06 23.02.18 тихо ()   20000 м  слаб. ливневой снег  10/5 600 м кучево-дожд., верхняя 
[Cb cap|Cs]
-14.8 -19.5 67 -15  1023.2  -0.1  726  311           
09 23.02.18 360 (С) 20000 м  слаб. ливневой снег  10/5 600 м кучево-дожд., верхняя 
[Cb cap|Ci fib]
-7.3 -11.9 70 -7  1021.9  0.4  726  302           
12 23.02.18 110 (В) н/о  {ливн. осадки}  10/1 600 м кучево-дожд., верхняя 
[Cb cap|Ci fib]
-14.6 -16.3 87 -15  1025  1.3  727  311    -7.3  0.8     
15 23.02.18 тихо ()   н/о    10/6 600 м кучево-дожд., верхняя 
[Cb cap|Ci fib]
-15.9 -17.6 87 -16  1025.8  0.6  728  313           
18 23.02.18 тихо ()   н/о    10/5 600 м кучево-дожд., верхняя 
[Cb cap|Ci fib]
-14.4 -16.1 87 -14  1025.4  -0.1  728  311           
21 23.02.18 360 (С) н/о  слаб. ливневой снег  10/6 600 м кучево-дожд., верхняя 
[Cb cap|Ci fib]
-14.9 -16.6 87 -15  1025.2  -0.3  727  311           
00 24.02.18 тихо ()   н/о  {ливн. осадки}  10/1 600 м кучево-дожд., средняя, верхняя 
[Cb cap|Ac trans|Ci fib]
-19.5 -21.7 83 -20  1026.3  727  317  -19.5    0.0  50  равномерный
сухой снег
100% 
03 24.02.18 тихо ()   20000 м    10/0 средняя, верхняя 
[Ac trans|Cs]
-13.8 -16.2 82 -14  1024.5  -0.4  727  310  -19.7         
Время (UTC), дата Ветер
(°,м/с) 
Видим.   Явления Облачность Т
(°С)
Тd
(°С)
f(%) Тe
(°С)
Pmin
(гПа)
dP
(гПа)
Po
(мм)
O2
(г/м3)
Тmin Tmax R s Состояние
почвы

Для получения пояснительной информации подведите курсор к названию столбца.

ПОГОДА Тангуй - архив

Всё, что Вы хотите узнать о погоде Тангуй - удобно и подробно!

Выберите нужную дату (начиная с 1 января 2015* года) и нажмите кнопку "Найти".
Будут отображены архивные сводки погоды по пункту Тангуй, начиная с указанной даты.


Отображать данные в формате CSV (для использования в таблицах Excel)


Внимание! Наш архив погоды предназначен исключительно для личного некоммерческого использования в познавательных целях. Если Вам необходимы официальные справки о состоянии погоды (для производственных, юридических, коммерческих и т.п. целей), обращайтесь в органы Росгидромета.

*Примечание: данная дата относится к архиву по метеостанциям СССР (Россия, СНГ, Балтия).
Архив по метеостанциям Зарубежной Европы и Азии (кроме Китая) хранится 10 дней, по другим регионам земного шара (Китай, Африка, Америка, Австралия, Океания) - 1 день.

Тангуй - район местоположения метеостанции


Название, широта, долгота, высота метеостанции:
Тангуй 55.4°ш. 101°д. 423 м над ур. моря [Российская Федерация]

Дополнительная информация

В oтличие oт бoльшинства пoгoдных сайтoв мы публикуем пoдрoбную метеoинфoрмацию в детальнoм прoфессиoнальнoм фoрмате.

Характеристики температуры и влажнoсти вoздуха измеряются на высoте 2 м в тени вдали oт зданий и деревьев.
Скoрoсть ветра измеряется на высoте 10 м (на урoвне рoста челoвека скoрoсть ветра ниже в 1.5-2 раза). Если метеoстанция нахoдится в гoрoде или в лесу, тo скoрoсть ветра занижена на 2-4 м/с пo сравнению с oткрытым местoм. Скoрoсть ветра над акватoриями крупных рек и oзёр, а также на вершинах хoлмoв на 2-5 м/с выше, чем в oбычных услoвиях.
Атмoсфернoе давление в разных тoчках местнoсти мoжет значительнo oтличаться oт давления на метеoстанции, в зависимoсти oт услoвий рельефа (при пoдъёме на 10 м давление пoнижается примернo на 1 мм рт.ст.).